Track HINODE (SOLAR B) now! 10-day predictions HINODE (SOLAR B) is classified as:
1 29479U 06041A 25182.91104458 .00000574 00000-0 10866-3 0 9992 2 29479 98.0709 199.0332 0016705 322.8958 37.1091 14.67948753 3478